Rush City, MN

6:53 PM CDT on August 19, 2017 (GMT -0500)
Rush City Regional

Weather History for KROS - May, 2013

Change the Weather History Date:

Wednesday, May 22, 2013

  Actual Average (KCBG) Record (KCBG)
Temperature  
Mean Temperature 46 °F -  
Max Temperature 50 °F 73 °F 92 °F (1964)
Min Temperature 41 °F 49 °F 30 °F (1963)
Degree Days  
Heating Degree Days 20    
Moisture  
Dew Point 43 °F    
Average Humidity 89    
Maximum Humidity 94    
Minimum Humidity 81    
Precipitation  
Precipitation 0.09 in - - ()
Sea Level Pressure  
Sea Level Pressure 29.83 in    
Wind  
Wind Speed 10 mph (NNE)    
Max Wind Speed 17 mph    
Max Gust Speed 25 mph    
Visibility 10 miles    
Events Rain    
Averages and records for this station are not official NWS values.
T = Trace of Precipitation, MM = Missing Value Source: NWS Daily Summary

Daily Weather History Graph

Daily Weather History Graph

Search for Another Location

Airport or City:

Trip Planner

Search our weather history database for the weather conditions in past years. The results will help you decide how hot, cold, wet, or windy it might be!

Date:

Astronomy

May. 22, 2013 Rise Set
Actual Time 5:33 AM CDT 8:44 PM CDT
Civil Twilight 4:57 AM CDT 9:20 PM CDT
Nautical Twilight 4:10 AM CDT 10:07 PM CDT
Astronomical Twilight 3:13 AM CDT 11:04 PM CDT
Moon 6:00 PM CDT (5/22) 3:46 AM CDT (5/22)
Length of Visible Light 16h 23m
Length of Day
15h 11m
Waxing Gibbous, 91% of the Moon is Illuminated
May 22
Waxing Gibbous
May 24
Full
May 31
Last Quarter
Jun 8
New
Jun 16
First Quarter

Hourly Weather History & Observations

Time (CDT) Temp. Windchill Dew Point Humidity Pressure Visibility Wind Dir Wind Speed Gust Speed Precip Events Conditions
12:15 AM 42.8 °F 36.2 °F 40.5 °F 91% 29.74 in 10.0 mi NNE 12.7 mph 18.4 mph N/A   Overcast
12:36 AM 42.8 °F 37.5 °F 40.1 °F 90% 29.75 in 10.0 mi NNE 9.2 mph - N/A   Overcast
12:55 AM 42.8 °F 37.0 °F 40.1 °F 90% 29.75 in 10.0 mi NNE 10.4 mph - N/A   Overcast
1:15 AM 42.4 °F 38.1 °F 39.9 °F 91% 29.74 in 10.0 mi NNE 6.9 mph - N/A   Overcast
1:36 AM 42.3 °F 37.9 °F 40.1 °F 92% 29.75 in 10.0 mi NE 6.9 mph - N/A   Overcast
1:55 AM 42.1 °F 37.1 °F 40.1 °F 93% 29.74 in 10.0 mi NE 8.1 mph - N/A   Overcast
2:15 AM 41.9 °F 36.3 °F 40.1 °F 93% 29.74 in 10.0 mi NE 9.2 mph 16.1 mph N/A   Overcast
2:36 AM 41.9 °F 36.9 °F 40.1 °F 93% 29.74 in 10.0 mi NE 8.1 mph - 0.01 in   Overcast
2:55 AM 41.9 °F 35.9 °F 40.1 °F 93% 29.74 in 10.0 mi NE 10.4 mph - 0.01 in   Overcast
3:15 AM 42.1 °F 36.6 °F 40.3 °F 93% 29.74 in 10.0 mi NNE 9.2 mph - N/A   Overcast
3:36 AM 42.3 °F 37.3 °F 40.5 °F 93% 29.74 in 10.0 mi NNE 8.1 mph - N/A   Overcast
3:55 AM 42.3 °F 37.3 °F 40.5 °F 93% 29.75 in 10.0 mi NE 8.1 mph - N/A   Overcast
4:15 AM 42.4 °F 38.1 °F 40.6 °F 93% 29.75 in 10.0 mi NNE 6.9 mph - N/A   Overcast
4:36 AM 42.4 °F 37.0 °F 40.6 °F 93% 29.76 in 10.0 mi NE 9.2 mph - N/A   Overcast
4:55 AM 42.4 °F 37.0 °F 40.6 °F 93% 29.76 in 10.0 mi NE 9.2 mph - N/A   Overcast
5:16 AM 42.8 °F 38.0 °F 41.0 °F 93% 29.76 in 10.0 mi NE 8.1 mph - N/A   Overcast
5:35 AM 42.8 °F 37.0 °F 41.0 °F 93% 29.76 in 10.0 mi NE 10.4 mph - N/A   Overcast
5:56 AM 42.8 °F 38.6 °F 41.2 °F 94% 29.76 in 10.0 mi NNE 6.9 mph - N/A   Overcast
6:16 AM 43.0 °F 37.7 °F 41.4 °F 94% 29.76 in 10.0 mi NNE 9.2 mph - N/A   Overcast
6:35 AM 43.2 °F 37.4 °F 41.5 °F 94% 29.76 in 10.0 mi NE 10.4 mph - N/A   Overcast
6:56 AM 43.2 °F 37.4 °F 41.4 °F 93% 29.76 in 10.0 mi NE 10.4 mph - N/A   Overcast
7:15 AM 43.5 °F 37.9 °F 41.7 °F 93% 29.75 in 10.0 mi NE 10.4 mph - N/A   Overcast
7:36 AM 43.7 °F 38.1 °F 41.9 °F 93% 29.76 in 10.0 mi NE 10.4 mph 17.3 mph N/A   Overcast
7:55 AM 43.9 °F 38.8 °F 41.9 °F 93% 29.77 in 10.0 mi NNE 9.2 mph 18.4 mph N/A   Overcast
8:15 AM 44.4 °F 39.5 °F 42.1 °F 91% 29.77 in 10.0 mi NNE 9.2 mph 17.3 mph N/A   Overcast
8:36 AM 45.1 °F 39.5 °F 42.8 °F 91% 29.77 in 10.0 mi NE 11.5 mph - N/A   Overcast
8:55 AM 45.5 °F 39.6 °F 42.8 °F 90% 29.78 in 10.0 mi NE 12.7 mph - N/A   Overcast
9:15 AM 46.0 °F 41.0 °F 43.0 °F 89% 29.78 in 10.0 mi NNE 10.4 mph - N/A   Overcast
9:36 AM 46.4 °F 41.9 °F 43.3 °F 89% 29.78 in 10.0 mi NNE 9.2 mph - N/A   Overcast
9:55 AM 46.9 °F - 43.5 °F 88% 29.78 in 10.0 mi NNE 11.5 mph 17.3 mph N/A   Overcast
10:16 AM 47.5 °F - 43.9 °F 87% 29.79 in 10.0 mi NE 11.5 mph 17.3 mph N/A   Overcast
10:36 AM 47.7 °F - 43.9 °F 87% 29.79 in 10.0 mi NNE 11.5 mph 16.1 mph N/A   Overcast
10:55 AM 48.2 °F - 43.9 °F 85% 29.80 in 10.0 mi NNE 11.5 mph 19.6 mph N/A   Overcast
11:16 AM 48.4 °F - 43.9 °F 84% 29.80 in 10.0 mi NE 9.2 mph - N/A   Overcast
11:35 AM 48.6 °F - 43.9 °F 84% 29.80 in 10.0 mi NNE 9.2 mph 18.4 mph N/A   Overcast
11:56 AM 49.3 °F - 44.4 °F 83% 29.80 in 10.0 mi NNE 15.0 mph 20.7 mph N/A   Overcast
12:15 PM 50.2 °F - 44.8 °F 82% 29.80 in 10.0 mi NNE 15.0 mph 23.0 mph N/A   Overcast
12:35 PM 50.0 °F - 44.6 °F 82% 29.81 in 10.0 mi NNE 13.8 mph 19.6 mph N/A   Overcast
12:56 PM 50.0 °F - 44.6 °F 82% 29.81 in 10.0 mi NNE 12.7 mph 20.7 mph N/A   Overcast
1:15 PM 50.0 °F - 44.8 °F 82% 29.81 in 10.0 mi NNE 16.1 mph - N/A   Overcast
1:36 PM 49.6 °F - 45.1 °F 84% 29.82 in 10.0 mi NNE 12.7 mph 18.4 mph N/A Rain Light Rain
1:55 PM 49.6 °F - 45.5 °F 86% 29.82 in 10.0 mi NNE 11.5 mph 18.4 mph N/A   Overcast
2:15 PM 49.8 °F - 45.9 °F 86% 29.83 in 10.0 mi NNE 12.7 mph 19.6 mph N/A   Overcast
2:36 PM 49.3 °F - 45.5 °F 87% 29.83 in 10.0 mi NNE 13.8 mph 21.9 mph N/A   Overcast
2:55 PM 48.7 °F - 45.3 °F 88% 29.84 in 10.0 mi NNE 12.7 mph 19.6 mph 0.01 in Rain Light Rain
3:15 PM 48.7 °F - 45.5 °F 89% 29.85 in 10.0 mi NNE 10.4 mph 18.4 mph 0.02 in Rain Light Rain
3:36 PM 48.7 °F - 45.3 °F 88% 29.85 in 10.0 mi NNE 17.3 mph 25.3 mph 0.03 in   Overcast
3:56 PM 49.1 °F - 45.5 °F 87% 29.86 in 10.0 mi NNE 12.7 mph 20.7 mph 0.04 in   Overcast
4:15 PM 48.6 °F - 45.1 °F 88% 29.86 in 10.0 mi NNE 17.3 mph 25.3 mph N/A   Overcast
4:36 PM 48.2 °F - 45.1 °F 89% 29.87 in 10.0 mi NNE 13.8 mph 21.9 mph 0.01 in   Overcast
4:55 PM 47.5 °F - 45.1 °F 92% 29.88 in 10.0 mi NNE 12.7 mph 19.6 mph 0.02 in   Overcast
5:16 PM 47.5 °F - 45.5 °F 93% 29.89 in 10.0 mi NNE 12.7 mph 19.6 mph N/A   Overcast
5:36 PM 47.7 °F - 45.7 °F 93% 29.89 in 10.0 mi NNE 12.7 mph 19.6 mph N/A   Overcast
5:55 PM 48.0 °F - 45.7 °F 92% 29.90 in 10.0 mi NNE 12.7 mph 18.4 mph N/A   Overcast
6:16 PM 48.4 °F - 45.3 °F 89% 29.90 in 10.0 mi NNE 15.0 mph 19.6 mph N/A   Overcast
6:35 PM 48.2 °F - 44.8 °F 88% 29.91 in 10.0 mi NNE 15.0 mph 24.2 mph N/A   Overcast
6:56 PM 48.2 °F - 44.6 °F 87% 29.91 in 10.0 mi NE 12.7 mph 19.6 mph N/A   Overcast
7:15 PM 48.2 °F - 44.6 °F 87% 29.92 in 10.0 mi NE 13.8 mph 23.0 mph 0.01 in   Overcast
7:36 PM 48.4 °F - 44.1 °F 85% 29.93 in 10.0 mi NE 10.4 mph 21.9 mph 0.01 in   Overcast
7:55 PM 48.7 °F - 43.7 °F 83% 29.93 in 10.0 mi NE 10.4 mph 19.6 mph 0.01 in   Mostly Cloudy
8:16 PM 49.1 °F - 43.3 °F 81% 29.94 in 10.0 mi NE 10.4 mph - N/A   Overcast
8:35 PM 49.1 °F - 43.3 °F 81% 29.94 in 10.0 mi NNE 8.1 mph - N/A   Overcast
8:54 PM 49.1 °F - 43.3 °F 81% 29.95 in 10.0 mi North 8.1 mph - N/A   Overcast
9:15 PM 48.2 °F - 43.0 °F 82% 29.96 in 10.0 mi NNE 8.1 mph - N/A   Scattered Clouds
9:35 PM 47.8 °F - 42.8 °F 83% 29.97 in 10.0 mi NNE 4.6 mph - N/A   Scattered Clouds
9:56 PM 47.3 °F - 42.3 °F 83% 29.98 in 10.0 mi NNE 4.6 mph - N/A   Scattered Clouds
10:06 PM 47.3 °F - 41.9 °F 82% 29.99 in 10.0 mi NNE 5.8 mph - N/A   Clear
10:36 PM 45.1 °F 42.8 °F 41.9 °F 88% 30.00 in 10.0 mi North 4.6 mph - N/A   Clear
10:56 PM 45.0 °F 41.8 °F 41.9 °F 89% 30.01 in 10.0 mi North 5.8 mph - N/A   Clear
11:15 PM 45.0 °F 41.8 °F 41.5 °F 88% 30.01 in 10.0 mi North 5.8 mph - N/A   Clear
11:36 PM 44.2 °F 40.3 °F 40.6 °F 87% 30.02 in 10.0 mi North 6.9 mph - N/A   Scattered Clouds
11:56 PM 44.2 °F 41.0 °F 40.5 °F 87% 30.03 in 10.0 mi NNE 5.8 mph - N/A   Scattered Clouds